Tracking 29892 objects as of 21-Nov-2024
HD Live streaming from Space Station
objects crossing your sky now

ETS 6 DEB

Track ETS 6 DEB now!


NORAD ID: 23248
Int'l Code: 1994-056C
Perigee: 7,623.3 km
Apogee: 38,876.2 km
Inclination: 11.3 °
Period: 845.6 minutes
Semi major axis: 29620 km
RCS: 4.4354 m2 (large)
Launch date: August 28, 1994
Source: Japan (JPN)
Launch site: TANEGASHIMA SPACE CENTER (TNSTA)

Note: This is SATELLITE DEBRIS
Your satellite tracking list
Your tracking list is empty




NASA's NSSDC Master Catalog

Two Line Element Set (TLE):
1 23248U 94056C   24321.76636865 -.00000053  00000-0  00000-0 0  9991
2 23248  11.3111 201.7586 5275514 252.0273  36.2493  1.70298071187860
Source of the keplerian elements: AFSPC